Flag for U.S.A. Weather past 2 weeks in Lubbock, Texas, U.S.A.

Now
46 °F

Partly cloudy.


Feels Like: 41 °F
Forecast: 29 / 50 °F
Wind: 12 mph from Southwest

Location: Lubbock International Airport

Current Time: Dec 28, 2014 at 6:35:35 PM

Latest Report: Dec 28, 2014 at 5:53 PM


Visibility: 10 mi

Pressure: 29.97 "Hg

Humidity: 40%

Dew point: 23 °F

Location of LubbockLocation

Historic Weather in Lubbock — Graph

°F

Lubbock temperature yesterday

Maximum temperature yesterday: 38 °F (at 3:53 PM)
Minimum temperature yesterday: 23 °F (at 11:53 PM)
Average temperature yesterday: 30 °F

Past Weeks' High & Low Weather Summary

 TemperatureHumidityPressure
High66 °F (Dec 13, 4:53 PM)100% (Dec 19, 8:53 AM)30.35 "Hg (Dec 19, 8:53 AM)
Low23 °F (Dec 27, 11:53 PM)17% (Dec 14, 3:53 PM)29.52 "Hg (Dec 22, 12:53 AM)
Average43 °F64%29.96 "Hg
* Reported Dec 13 4:53 PM — Dec 28 4:53 PM, Lubbock, Weather by CustomWeather, © 2014

Note: Actual official high and low records may vary slightly from our data, if they occured in-between our weather recording intervals... More about our weather records

Advertising

Lubbock weather history for previous 24 hours

 ConditionsComfort  
Time TempWeatherWind HumidityBarometerVisibility
4:53 PM
Dec 28
50 °FPartly sunny.20 mph28%29.96 "Hg10 mi
3:53 PM51 °FPassing clouds.22 mph29%29.96 "Hg10 mi
2:53 PM51 °FPassing clouds.21 mph29%29.98 "Hg10 mi
1:53 PM50 °FPassing clouds.21 mph33%30.00 "Hg10 mi
12:53 PM47 °FPassing clouds.23 mph44%30.04 "Hg10 mi
11:53 AM43 °FSunny.21 mph58%30.11 "Hg10 mi
10:53 AM39 °FSunny.15 mph67%30.15 "Hg10 mi
9:53 AM34 °FSunny.13 mph79%30.19 "Hg9 mi
8:53 AM28 °FSunny.9 mph85%30.20 "Hg8 mi
7:53 AM23 °FPassing clouds.8 mph88%30.20 "Hg9 mi
6:53 AM24 °FClear.8 mph88%30.20 "Hg10 mi
5:53 AM23 °FClear.8 mph88%30.18 "Hg10 mi
4:53 AM23 °FClear.8 mph85%30.20 "Hg10 mi
3:53 AM25 °FClear.9 mph81%30.22 "Hg10 mi
2:53 AM23 °FClear.5 mph81%30.27 "Hg10 mi
1:53 AM23 °FClear.5 mph85%30.29 "Hg10 mi
12:53 AM24 °FPassing clouds.7 mph81%30.31 "Hg10 mi
11:53 PM
Dec 27
23 °FPassing clouds.6 mph85%30.32 "Hg10 mi
10:53 PM26 °FPassing clouds.No wind77%30.31 "Hg10 mi
9:53 PM25 °FPassing clouds.No wind81%30.32 "Hg10 mi
8:53 PM26 °FClear.7 mph77%30.30 "Hg10 mi
7:53 PM28 °FClear.7 mph75%30.30 "Hg10 mi
6:53 PM30 °FClear.6 mph72%30.29 "Hg10 mi
Weather by CustomWeather, © 2014

See weather overviewHow to use our weather pages